{"data":{"norad_id":61060,"intl_designator":"2024-164L","name":"STARLINK-11297 [DTC]","alt_names":[],"object_type":"PAYLOAD","status":"ACTIVE","operator":null,"country":"US","launch_date":"2024-09-13","launch_site_code":"AFWTR","launch_vehicle":null,"mission":null,"orbit_class":"UNKNOWN","rcs_meters":null,"size_class":null,"mass_kg":null,"dimensions":null,"purposes":["comms"],"wikipedia_slug":null,"has_3d_model":false,"image_url":null,"decayed_at":null,"tle_current":{"epoch":"2026-09-21T21:38:01.083552Z","epoch_age_seconds":71079,"freshness":"FRESH","line1":"1 61060U 24164L   26264.90140143 -.00000057  00000+0  43886-5 0  9998","line2":"2 61060  53.1592  64.1974 0000940  65.2012 294.9103 15.69710981116238","mean_motion":15.69710981,"eccentricity":9.4e-5,"inclination_deg":53.1592,"raan_deg":64.1974,"arg_perigee_deg":65.2012,"mean_anomaly_deg":294.9103,"bstar":4.3886e-6,"rev_number":11623,"period_min":91.736632885287,"perigee_km":359.09058424609,"apogee_km":360.35730210341,"semimajor_km":6737.8609431747,"source":"CELESTRAK","updated_at":"2026-09-22T09:00:49.332950Z"}}}